GW5293 Weather Reports


time (UTC)temp
C
wind
direction
speed
KPH
gust
KPH
rain 1hr
cm
rain 24hr
cm
rain mn
cm
humidity
%
barometer
mb
20260903150146 30 219 0.0 3.2 0.00 0.00 0.00 67 1018.0
20260903145645 31 67 0.0 4.8 0.00 0.00 0.00 67 1018.0
20260903145144 31 226 0.0 4.8 0.00 0.00 0.00 65 1018.0
20260903144644 30 319 4.8 6.4 0.00 0.00 0.00 67 1018.0
20260903144143 30 314 4.8 6.4 0.00 0.00 0.00 68 1018.0
20260903143643 30 37 0.0 3.2 0.00 0.00 0.00 71 1018.0
20260903143142 30 75 0.0 0.0 0.00 0.00 0.00 68 1018.0
20260903142641 30 311 3.2 4.8 0.00 0.00 0.00 72 1018.0
20260903142141 30 288 4.8 6.4 0.00 0.00 0.00 69 1018.0
20260903141640 29 217 0.0 0.0 0.00 0.00 0.00 72 1018.0
20260903141140 29 103 3.2 3.2 0.00 0.00 0.00 73 1018.0
20260903140640 29 24 3.2 4.8 0.00 0.00 0.00 73 1018.0
20260903140139 28 201 0.0 3.2 0.00 0.00 0.00 74 1018.0
20260903135639 28 324 3.2 4.8 0.00 0.00 0.00 74 1018.0
20260903135138 28 290 3.2 6.4 0.00 0.00 0.00 75 1018.0
20260903134637 27 297 3.2 4.8 0.00 0.00 0.00 77 1018.0
20260903134137 27 144 4.8 4.8 0.00 0.00 0.00 77 1018.0
20260903133636 27 65 3.2 3.2 0.00 0.00 0.00 78 1018.0
20260903133136 27 269 0.0 3.2 0.00 0.00 0.00 78 1018.0
20260903132635 28 319 4.8 4.8 0.00 0.00 0.00 76 1018.0
20260903132134 28 34 0.0 3.2 0.00 0.00 0.00 76 1018.0
20260903131634 28 251 3.2 3.2 0.00 0.00 0.00 76 1018.0
20260903131134 27 208 0.0 3.2 0.00 0.00 0.00 77 1018.0
20260903130633 27 294 3.2 3.2 0.00 0.00 0.00 78 1018.0
20260903130133 27 59 0.0 3.2 0.00 0.00 0.00 79 1018.0
20260903125632 27 84 3.2 3.2 0.00 0.00 0.00 78 1018.0
20260903125132 27 222 0.0 3.2 0.00 0.00 0.00 79 1018.0
20260903124631 26 45 0.0 3.2 0.00 0.00 0.00 84 1018.0
20260903124131 26 84 0.0 3.2 0.00 0.00 0.00 84 1018.0
20260903123630 25 241 3.2 3.2 0.00 0.00 0.00 87 1018.0
20260903123129 25 74 3.2 3.2 0.00 0.00 0.00 88 1018.0
20260903122629 24 310 0.0 0.0 0.00 0.00 0.00 90 1018.0
20260903122128 23 85 3.2 4.8 0.00 0.00 0.00 90 1018.0
20260903121628 23 56 3.2 4.8 0.00 0.00 0.00 93 1018.0
20260903121127 22 89 3.2 3.2 0.00 0.00 0.00 96 1018.0
20260903120626 22 320 3.2 3.2 0.00 0.00 0.00 98 1018.0
20260903120126 22 306 3.2 3.2 0.00 0.00 0.00 98 1017.0
20260903115625 21 242 0.0 3.2 0.00 0.00 0.00 98 1017.0
20260903115125 21 47 3.2 4.8 0.00 0.00 0.00 98 1018.0
20260903114624 21 25 3.2 3.2 0.00 0.00 0.00 98 1017.0
20260903114123 21 81 0.0 3.2 0.00 0.00 0.00 98 1017.0
20260903113623 21 353 0.0 3.2 0.00 0.00 0.00 98 1017.0
20260903113122 21 13 0.0 3.2 0.00 0.00 0.00 98 1017.0
20260903112622 21 350 0.0 0.0 0.00 0.00 0.00 98 1017.0
20260903112121 21 266 0.0 0.0 0.00 0.00 0.00 98 1017.0
20260903111621 21 148 0.0 0.0 0.00 0.00 0.00 98 1017.0
20260903111120 21 108 0.0 0.0 0.00 0.00 0.00 98 1017.0
20260903110620 21 128 3.2 3.2 0.00 0.00 0.00 98 1017.0
20260903110119 21 325 0.0 3.2 0.00 0.00 0.00 98 1017.0
20260903105619 21 315 0.0 3.2 0.00 0.00 0.00 98 1017.0
20260903105118 21 324 0.0 0.0 0.00 0.00 0.00 97 1017.0
20260903104618 21 58 3.2 3.2 0.00 0.00 0.00 97 1017.0
20260903104117 21 111 0.0 0.0 0.00 0.00 0.00 97 1017.0
20260903103617 21 40 0.0 3.2 0.00 0.00 0.00 97 1017.0
20260903103116 21 265 0.0 0.0 0.00 0.00 0.00 97 1017.0
20260903102616 21 105 3.2 3.2 0.00 0.00 0.00 97 1017.0
20260903102115 21 89 0.0 3.2 0.00 0.00 0.00 97 1017.0
20260903101614 21 53 0.0 0.0 0.00 0.00 0.00 97 1016.0
20260903101114 21 243 0.0 0.0 0.00 0.00 0.00 97 1016.0
20260903100614 21 31 0.0 3.2 0.00 0.00 0.00 96 1016.0
20260903100113 21 102 0.0 3.2 0.00 0.00 0.00 96 1017.0
20260903095613 21 32 0.0 3.2 0.00 0.00 0.00 96 1017.0
20260903095112 22 197 0.0 3.2 0.00 0.00 0.00 96 1017.0
20260903094612 22 62 0.0 3.2 0.00 0.00 0.00 96 1016.0
20260903094111 22 37 0.0 0.0 0.00 0.00 0.00 96 1016.0
20260903093611 22 86 0.0 3.2 0.00 0.00 0.00 95 1016.0
20260903093110 22 75 0.0 3.2 0.00 0.00 0.00 95 1016.0
20260903092610 22 205 0.0 0.0 0.00 0.00 0.00 95 1017.0
20260903092109 22 4 3.2 3.2 0.00 0.00 0.00 95 1016.0
20260903091609 22 315 0.0 0.0 0.00 0.00 0.00 95 1016.0
20260903091108 22 56 0.0 3.2 0.00 0.00 0.00 94 1016.0
20260903090608 22 295 3.2 3.2 0.00 0.00 0.00 94 1017.0
20260903090107 22 301 3.2 3.2 0.00 0.00 0.00 94 1016.0
20260903085606 22 119 0.0 3.2 0.00 0.00 0.00 94 1016.0
20260903085106 22 1 3.2 3.2 0.00 0.00 0.00 94 1016.0
20260903084606 22 33 0.0 3.2 0.00 0.00 0.00 93 1016.0
20260903084105 22 274 3.2 3.2 0.00 0.00 0.00 93 1016.0
20260903083604 22 256 0.0 3.2 0.00 0.00 0.00 93 1016.0
20260903083104 22 303 0.0 3.2 0.00 0.00 0.00 93 1017.0
20260903082604 22 257 3.2 3.2 0.00 0.00 0.00 93 1017.0
20260903082103 22 329 0.0 3.2 0.00 0.00 0.00 93 1016.0
20260903081603 22 34 3.2 3.2 0.00 0.00 0.00 93 1016.0
20260903081102 22 25 0.0 3.2 0.00 0.00 0.00 93 1016.0
20260903080602 22 318 0.0 3.2 0.00 0.00 0.00 93 1016.0
20260903075601 22 309 0.0 3.2 0.00 0.00 0.00 94 1016.0
20260903075100 22 36 0.0 3.2 0.00 0.00 0.00 93 1016.0
20260903074600 22 130 0.0 3.2 0.00 0.00 0.00 92 1016.0
20260903074059 22 224 0.0 3.2 0.00 0.00 0.00 93 1016.0
20260903073559 22 58 0.0 3.2 0.00 0.00 0.00 92 1016.0
20260903073058 23 280 0.0 3.2 0.00 0.00 0.00 92 1016.0
20260903072558 23 301 4.8 4.8 0.00 0.00 0.00 92 1016.0
20260903072057 23 357 0.0 3.2 0.00 0.00 0.00 92 1016.0
20260903071557 23 351 0.0 3.2 0.00 0.00 0.00 92 1016.0
20260903071056 23 337 3.2 4.8 0.00 0.00 0.00 92 1016.0
20260903070556 23 39 0.0 3.2 0.00 0.00 0.00 92 1016.0
20260903070055 23 290 3.2 3.2 0.00 0.00 0.00 92 1016.0
20260903065555 23 321 0.0 3.2 0.00 0.00 0.00 92 1016.0
20260903065055 23 8 0.0 3.2 0.00 0.00 0.00 92 1016.0
20260903064554 23 149 0.0 3.2 0.00 0.00 0.00 91 1016.0
20260903064054 23 310 0.0 3.2 0.00 0.00 0.00 91 1016.0
20260903063553 23 82 0.0 3.2 0.00 0.00 0.00 91 1016.0
20260903063052 23 302 0.0 3.2 0.00 0.00 0.00 91 1016.0
20260903062552 23 290 0.0 3.2 0.00 0.00 0.00 90 1016.0
20260903062051 23 118 3.2 3.2 0.00 0.00 0.00 90 1016.0
20260903061550 23 41 0.0 3.2 0.00 0.00 0.00 89 1016.0
20260903061049 23 105 0.0 3.2 0.00 0.00 0.00 89 1016.0
20260903060549 23 76 0.0 3.2 0.00 0.00 0.00 88 1016.0
20260903060048 23 188 3.2 3.2 0.00 0.00 0.00 87 1016.0
20260903055548 24 107 0.0 3.2 0.00 0.00 0.00 86 1016.0
20260903055048 24 269 0.0 3.2 0.00 0.00 0.00 86 1016.0
20260903054547 24 53 0.0 0.0 0.00 0.00 0.00 86 1016.0
20260903054047 24 297 0.0 3.2 0.00 0.00 0.00 85 1016.0
20260903053546 24 325 0.0 3.2 0.00 0.00 0.00 85 1016.0
20260903053046 25 299 0.0 3.2 0.00 0.00 0.00 84 1016.0
20260903052545 25 254 0.0 3.2 0.00 0.00 0.00 83 1016.0
20260903052044 25 306 0.0 3.2 0.00 0.00 0.00 83 1016.0
20260903051544 25 303 0.0 0.0 0.00 0.00 0.00 83 1016.0
20260903051043 25 341 3.2 4.8 0.00 0.00 0.00 83 1016.0
20260903050543 25 65 0.0 3.2 0.00 0.00 0.00 82 1016.0
20260903050042 25 316 0.0 3.2 0.00 0.00 0.00 82 1016.0
20260903045542 25 337 3.2 3.2 0.00 0.00 0.00 83 1017.0
20260903045041 25 357 3.2 3.2 0.00 0.00 0.00 82 1016.0
20260903044541 25 287 0.0 3.2 0.00 0.00 0.00 82 1016.0
20260903044040 25 326 3.2 3.2 0.00 0.00 0.00 83 1017.0
20260903043540 25 288 3.2 3.2 0.00 0.00 0.00 82 1017.0
20260903043040 25 280 0.0 3.2 0.00 0.00 0.00 83 1017.0
20260903042539 25 223 3.2 3.2 0.00 0.00 0.00 83 1016.0
20260903042038 25 262 0.0 3.2 0.00 0.00 0.00 84 1016.0
20260903041538 25 309 0.0 3.2 0.00 0.00 0.00 84 1016.0
20260903041037 25 276 3.2 4.8 0.00 0.00 0.00 83 1016.0
20260903040536 25 345 0.0 0.0 0.00 0.00 0.00 82 1017.0
20260903040036 26 293 3.2 3.2 0.00 0.00 0.00 81 1017.0
20260903035536 25 343 0.0 3.2 0.00 0.00 0.00 80 1016.0
20260903035035 26 311 0.0 0.0 0.00 0.00 0.00 80 1016.0
20260903034535 25 255 3.2 4.8 0.00 0.00 0.00 81 1016.0
20260903034035 25 255 0.0 0.0 0.00 0.00 0.00 81 1017.0
20260903033534 26 313 0.0 3.2 0.00 0.00 0.00 81 1016.0
20260903033034 26 354 3.2 6.4 0.00 0.00 0.00 80 1016.0
20260903032533 26 292 4.8 4.8 0.00 0.00 0.00 80 1016.0
20260903032033 25 269 0.0 3.2 0.00 0.00 0.00 81 1017.0
20260903031533 25 269 0.0 0.0 0.00 0.00 0.00 82 1016.0
20260903031032 25 348 3.2 3.2 0.00 0.00 0.00 82 1017.0
20260903030531 25 325 0.0 3.2 0.00 0.00 0.00 83 1016.0
20260903030031 25 294 0.0 3.2 0.00 0.00 0.00 81 1016.0
20260903025530 26 283 0.0 0.0 0.00 0.00 0.00 79 1016.0
20260903025030 26 247 3.2 4.8 0.00 0.00 0.00 79 1017.0
20260903024529 26 63 0.0 3.2 0.00 0.00 0.00 80 1016.0
20260903024029 26 78 0.0 4.8 0.00 0.00 0.00 79 1016.0
20260903023528 26 180 0.0 3.2 0.00 0.00 0.00 78 1016.0
20260903023027 26 193 0.0 3.2 0.00 0.00 0.00 77 1017.0
20260903022527 26 279 0.0 4.8 0.00 0.00 0.00 76 1017.0
20260903022026 26 75 0.0 4.8 0.00 0.00 0.00 76 1016.0
20260903021526 27 216 3.2 3.2 0.00 0.00 0.00 75 1017.0
20260903021025 27 78 3.2 3.2 0.00 0.00 0.00 75 1016.0
20260903020525 27 300 0.0 3.2 0.00 0.00 0.00 74 1016.0
20260903020025 27 320 4.8 6.4 0.00 0.00 0.00 74 1017.0
20260903015524 27 104 3.2 3.2 0.00 0.00 0.00 74 1016.0
20260903015023 27 298 4.8 8.0 0.00 0.00 0.00 73 1016.0
20260903014523 27 311 0.0 3.2 0.00 0.00 0.00 72 1017.0
20260903014022 27 314 0.0 0.0 0.00 0.00 0.00 71 1016.0
20260903013521 27 315 0.0 0.0 0.00 0.00 0.00 70 1016.0
20260903013021 27 310 0.0 3.2 0.00 0.00 0.00 71 1016.0
20260903012520 28 341 0.0 3.2 0.00 0.00 0.00 71 1016.0
20260903012020 28 302 3.2 3.2 0.00 0.00 0.00 71 1016.0
20260903011519 28 302 3.2 3.2 0.00 0.00 0.00 70 1016.0
20260903011018 28 322 0.0 3.2 0.00 0.00 0.00 69 1016.0
20260903010518 28 297 0.0 3.2 0.00 0.00 0.00 67 1016.0
20260903010018 28 284 3.2 3.2 0.00 0.00 0.00 65 1016.0
20260903005516 28 306 0.0 3.2 0.00 0.00 0.00 66 1016.0
20260903005016 28 252 0.0 3.2 0.00 0.00 0.00 65 1016.0
20260903004516 28 288 0.0 3.2 0.00 0.00 0.00 67 1016.0
20260903004015 28 321 3.2 3.2 0.00 0.00 0.00 68 1016.0
20260903003515 28 323 3.2 3.2 0.00 0.00 0.00 68 1016.0
20260903003014 28 309 0.0 0.0 0.00 0.00 0.00 67 1016.0
20260903002514 29 304 0.0 0.0 0.00 0.00 0.00 66 1016.0
20260903002013 29 315 0.0 0.0 0.00 0.00 0.00 65 1016.0
20260903001513 29 306 3.2 3.2 0.00 0.00 0.00 65 1016.0
20260903001012 29 309 4.8 4.8 0.00 0.00 0.00 65 1016.0
20260903000512 30 301 3.2 3.2 0.00 0.00 0.00 63 1016.0
20260903000011 30 230 0.0 0.0 0.00 0.00 0.00 62 1016.0
20260902235510 30 233 0.0 0.0 0.00 0.00 0.00 62 1016.0
20260902235010 30 266 0.0 3.2 0.00 0.00 0.00 62 1016.0
20260902234510 30 269 0.0 3.2 0.00 0.00 0.00 62 1016.0
20260902234009 30 44 0.0 0.0 0.00 0.00 0.00 62 1016.0
20260902233509 31 252 4.8 4.8 0.00 0.00 0.00 61 1016.0
20260902233008 31 242 0.0 0.0 0.00 0.00 0.00 60 1016.0
20260902232508 31 232 0.0 3.2 0.00 0.00 0.00 59 1016.0
20260902232007 31 212 0.0 0.0 0.00 0.00 0.00 59 1016.0
20260902231507 31 255 0.0 3.2 0.00 0.00 0.00 59 1016.0
20260902231007 31 262 3.2 3.2 0.00 0.00 0.00 58 1016.0
20260902230506 31 255 3.2 4.8 0.00 0.00 0.00 58 1016.0
20260902230006 32 275 3.2 3.2 0.00 0.00 0.00 56 1016.0
20260902225505 32 258 3.2 3.2 0.00 0.00 0.00 55 1016.0
20260902225005 32 271 3.2 3.2 0.00 0.00 0.00 55 1016.0
20260902224504 32 272 3.2 3.2 0.00 0.00 0.00 53 1016.0
20260902224003 32 264 3.2 3.2 0.00 0.00 0.00 54 1016.0
20260902223503 32 259 3.2 3.2 0.00 0.00 0.00 53 1016.0
20260902223002 32 254 3.2 3.2 0.00 0.00 0.00 52 1016.0
20260902222502 33 260 3.2 3.2 0.00 0.00 0.00 51 1016.0
20260902222001 33 248 3.2 4.8 0.00 0.00 0.00 51 1016.0
20260902221501 33 230 0.0 3.2 0.00 0.00 0.00 50 1016.0
20260902221000 33 268 3.2 3.2 0.00 0.00 0.00 50 1016.0
20260902220459 33 241 0.0 3.2 0.00 0.00 0.00 50 1016.0
20260902215959 34 265 0.0 3.2 0.00 0.00 0.00 48 1016.0
20260902215459 34 268 3.2 3.2 0.00 0.00 0.00 47 1016.0
20260902214958 34 248 0.0 3.2 0.00 0.00 0.00 47 1016.0
20260902214458 35 265 3.2 4.8 0.00 0.00 0.00 44 1016.0
20260902213957 35 279 3.2 3.2 0.00 0.00 0.00 47 1016.0
20260902213456 35 253 3.2 3.2 0.00 0.00 0.00 44 1016.0
20260902212956 36 286 3.2 3.2 0.00 0.00 0.00 46 1016.0
20260902212455 36 235 0.0 4.8 0.00 0.00 0.00 42 1016.0
20260902211955 36 296 3.2 4.8 0.00 0.00 0.00 42 1016.0
20260902211454 36 238 3.2 4.8 0.00 0.00 0.00 42 1016.0
20260902210954 36 273 3.2 4.8 0.00 0.00 0.00 42 1016.0
20260902210453 36 282 3.2 4.8 0.00 0.00 0.00 44 1016.0
20260902205953 36 205 3.2 4.8 0.00 0.00 0.00 45 1016.0
20260902205452 37 292 4.8 4.8 0.00 0.00 0.00 43 1016.0
20260902204951 37 248 0.0 3.2 0.00 0.00 0.00 43 1016.0
20260902204451 37 236 0.0 3.2 0.00 0.00 0.00 43 1016.0
20260902203950 37 276 3.2 3.2 0.00 0.00 0.00 43 1016.0
20260902203450 37 254 3.2 4.8 0.00 0.00 0.00 42 1016.0
20260902202949 37 258 0.0 3.2 0.00 0.00 0.00 45 1016.0
20260902202449 37 221 3.2 4.8 0.00 0.00 0.00 43 1016.0
20260902201948 36 238 3.2 4.8 0.00 0.00 0.00 43 1016.0
20260902201448 37 300 3.2 3.2 0.00 0.00 0.00 42 1016.0
20260902200947 36 285 3.2 6.4 0.00 0.00 0.00 44 1016.0
20260902200446 36 324 0.0 3.2 0.00 0.00 0.00 46 1016.0
20260902195946 35 308 3.2 3.2 0.00 0.00 0.00 45 1016.0
20260902195445 35 298 3.2 3.2 0.00 0.00 0.00 47 1017.0
20260902194945 35 268 3.2 3.2 0.00 0.00 0.00 47 1017.0
20260902194445 35 224 0.0 0.0 0.00 0.00 0.00 47 1017.0
20260902193944 36 225 4.8 4.8 0.00 0.00 0.00 45 1017.0
20260902193443 36 276 0.0 3.2 0.00 0.00 0.00 46 1017.0
20260902192943 36 239 3.2 3.2 0.00 0.00 0.00 47 1017.0
20260902192442 36 278 3.2 3.2 0.00 0.00 0.00 47 1017.0
20260902191941 36 259 3.2 4.8 0.00 0.00 0.00 45 1017.0
20260902191441 36 247 3.2 3.2 0.00 0.00 0.00 45 1017.0
20260902190940 36 263 4.8 4.8 0.00 0.00 0.00 44 1017.0
20260902190439 36 139 3.2 4.8 0.00 0.00 0.00 43 1017.0
20260902185939 36 248 3.2 3.2 0.00 0.00 0.00 45 1017.0
20260902185438 36 243 3.2 3.2 0.00 0.00 0.00 46 1017.0
20260902184938 36 291 3.2 3.2 0.00 0.00 0.00 44 1017.0
20260902184437 37 220 3.2 4.8 0.00 0.00 0.00 46 1017.0
20260902183936 36 292 0.0 4.8 0.00 0.00 0.00 47 1017.0
20260902183436 36 279 4.8 6.4 0.00 0.00 0.00 43 1017.0
20260902182935 36 37 0.0 3.2 0.00 0.00 0.00 46 1017.0
20260902182435 36 246 3.2 3.2 0.00 0.00 0.00 50 1017.0
20260902181934 35 220 3.2 4.8 0.00 0.00 0.00 50 1018.0
20260902181434 36 4 3.2 3.2 0.00 0.00 0.00 47 1017.0
20260902180933 36 128 3.2 3.2 0.00 0.00 0.00 46 1018.0
20260902180433 36 255 3.2 3.2 0.00 0.00 0.00 51 1018.0
20260902175932 36 267 3.2 4.8 0.00 0.00 0.00 50 1018.0
20260902175432 35 267 4.8 4.8 0.00 0.00 0.00 52 1018.0
20260902174931 35 256 3.2 4.8 0.00 0.00 0.00 50 1018.0
20260902174431 34 150 0.0 3.2 0.00 0.00 0.00 52 1018.0
20260902173930 35 275 0.0 3.2 0.00 0.00 0.00 53 1018.0
20260902173430 34 255 3.2 4.8 0.00 0.00 0.00 55 1018.0
20260902172929 35 327 0.0 3.2 0.00 0.00 0.00 52 1018.0
20260902172428 34 20 3.2 3.2 0.00 0.00 0.00 55 1018.0
20260902171928 33 267 3.2 3.2 0.00 0.00 0.00 56 1018.0
20260902171427 34 21 6.4 6.4 0.00 0.00 0.00 54 1018.0
20260902170927 34 315 3.2 4.8 0.00 0.00 0.00 53 1018.0
20260902170426 33 217 4.8 4.8 0.00 0.00 0.00 56 1019.0
20260902165925 33 287 3.2 3.2 0.00 0.00 0.00 56 1018.0
20260902165424 33 44 0.0 0.0 0.00 0.00 0.00 57 1018.0
20260902164923 32 282 3.2 3.2 0.00 0.00 0.00 60 1019.0
20260902164423 32 296 4.8 4.8 0.00 0.00 0.00 57 1019.0
20260902163922 32 2 4.8 4.8 0.00 0.00 0.00 57 1019.0
20260902163422 32 283 4.8 4.8 0.00 0.00 0.00 60 1019.0
20260902162921 31 258 3.2 4.8 0.00 0.00 0.00 61 1019.0
20260902162420 32 53 4.8 4.8 0.00 0.00 0.00 62 1019.0
20260902161920 32 302 4.8 6.4 0.00 0.00 0.00 60 1019.0
20260902161419 32 211 4.8 4.8 0.00 0.00 0.00 63 1019.0
20260902160919 31 71 3.2 3.2 0.00 0.00 0.00 62 1019.0
20260902160419 31 269 3.2 4.8 0.00 0.00 0.00 60 1019.0
20260902155918 31 113 0.0 3.2 0.00 0.00 0.00 63 1019.0
20260902155418 31 110 0.0 3.2 0.00 0.00 0.00 62 1019.0
20260902154917 31 232 4.8 6.4 0.00 0.00 0.00 63 1019.0
20260902154417 31 263 0.0 0.0 0.00 0.00 0.00 65 1019.0
20260902153916 31 265 3.2 3.2 0.00 0.00 0.00 63 1019.0
20260902153416 31 272 0.0 3.2 0.00 0.00 0.00 65 1019.0
20260902152915 31 237 3.2 3.2 0.00 0.00 0.00 63 1019.0
20260902152415 31 269 0.0 3.2 0.00 0.00 0.00 67 1019.0
20260902151914 31 279 3.2 3.2 0.00 0.00 0.00 64 1019.0
20260902151413 31 326 6.4 6.4 0.00 0.00 0.00 64 1019.0
20260902150912 31 285 3.2 3.2 0.00 0.00 0.00 64 1019.0
20260902150412 31 231 3.2 4.8 0.00 0.00 0.00 65 1019.0